COSMOS 886 DEB

Satellite information

Favourite Embed

Satellite Type and Status

DEBRISIN ORBIT

Key statistics

Satellite COSMOS 886 DEB at a glance.

Uptime

17663

Days in orbit

Revolutions

≈ 12.6

Per day

Orbit

MEO

Medium Earth Orbit

Inclination

65.7

Latest

Satellite identification and parameters

Extended collection of information and parameters for COSMOS 886 DEB.

Object identification

Identified? True

Debris? True

Object name: COSMOS 886 DEB

International designator: 1976-126BU

Object number (NORAD): 15762

Object ID (CCSDS): 15762

Country: COMMONWEALTH OF INDEPENDENT STATES (CIS)

Current information (Y/N): Y

RCS size: SMALL

Orbital parameters

Period: 114.35 minutes

Inclination: 65.6636 deg

SMA: 7804.018 km

Apoapsis: 2012.789 km

Periapsis: 838.978 km

RAAN: 308.4587 deg

Eccentricy: 0.0752055

Argument of periapsis: 314.3163 deg

Mean anomaly: 39.8472 deg

Mean motion: 12.59288781 rev/day

Mean motion (dot): 0.00000039 rev/day2

B* drag term: 0.00019593 1/REarth

Two-line elements (TLE)

Creation date: May 5, 2025, 2:11 a.m.

Reference frame: TEME

Reference center: EARTH

Epoch: May 4, 2025, 9:28 p.m. UTC

TLE line 0: 0 COSMOS 886 DEB

TLE line 1: 1 15762U 76126BU 25124.89477054 .00000039 00000-0 19593-3 0 9993

TLE line 2: 2 15762 65.6636 308.4587 0752055 314.3163 39.8472 12.59288781650729

Live tracking on map

Real-time ground track for satellite COSMOS 886 DEB.

In-orbit conjunctions

A list of the most updated potential collisions computed for object COSMOS 886 DEB.

Target Orbit TCA Probability of collision Miss distance Type
SL-12 R/B(2) LEO 2025-01-18 18:58:59 0.0004037366 75.0 (m) ROCKET BODY
FENGYUN 1C DEB SSO 2024-06-24 16:45:01 0.0001957681 56.0 (m) DEBRIS

Associated space launch

Second generation ASAT satellite

COSMOS 886 DEB was lifted into orbit during the mission ‘Tsiklon-2 | IS-A 4’, on board a Tsiklon-2 space rocket.

The launch took place on Dec. 27, 1976, 12:05 p.m. from 90.

For more information about the launch, click the button.

Launch to space Tsiklon-2 | IS-A 4
Tsiklon-2 | IS-A 4

Agency: N/A

Status: Launch Successful

Launch date: Dec. 27, 1976, 12:05 p.m. UTC

Rocket: Tsiklon-2

Launch pad: 90

Location: Baikonur Cosmodrome, Republic of Kazakhstan

...

Latest news about this satellite

There are no fresh news available about this satellite. Check back as we update our databases every day.


Newsletter sign-up

Weekly statistics, charts and insights to help you stay on top of the space industry.